Flag Weather past 2 weeks in Male, Maldives

Now
81 °F

Passing clouds.


Feels Like: 86 °F
Forecast: 77 / 86 °F
Wind: 7 mph from North

Location: Male Airport

Current Time: Nov 26, 2014 at 4:46:41 AM

Latest Report: Nov 26, 2014 at 4:00 AM


Visibility: N/A

Pressure: 29.74 "Hg

Humidity: 84%

Dew point: 75 °F

Location of MaleLocation

Historic Weather in Male — Graph

°F

Male temperature yesterday

Maximum temperature yesterday: 84 °F (at 10:00 AM)
Minimum temperature yesterday: 81 °F (at 12:00 AM)
Average temperature yesterday: 82 °F

Past Weeks' High & Low Weather Summary

 TemperatureHumidityPressure
High88 °F (Nov 12, 11:00 AM)100% (Nov 22, 3:00 PM)29.92 "Hg (Nov 22, 3:00 PM)
Low77 °F (Nov 18, 3:00 AM)62% (Nov 14, 11:00 AM)29.74 "Hg (Nov 13, 3:00 PM)
Average83 °F81%29.83 "Hg
* Reported Nov 11 3:00 AM — Nov 26 3:00 AM, Male, Weather by CustomWeather, © 2014

Note: Actual official high and low records may vary slightly from our data, if they occured in-between our weather recording intervals... More about our weather records

Advertising

Male weather history for previous 24 hours

 ConditionsComfort  
Time TempWeatherWind HumidityBarometerVisibility
3:00 AM
Nov 26
81 °FPassing clouds.5 mph89%29.74 "HgN/A
2:00 AM81 °FPassing clouds.3 mph84%29.77 "HgN/A
1:00 AM81 °FPassing clouds.6 mph84%29.80 "HgN/A
12:00 AM82 °FPassing clouds.6 mph79%29.80 "HgN/A
11:00 PM
Nov 25
82 °FPassing clouds.8 mph84%29.83 "HgN/A
10:00 PM82 °FPassing clouds.12 mph79%29.83 "HgN/A
9:00 PM82 °FPassing clouds.14 mph70%29.83 "HgN/A
8:00 PM82 °FPassing clouds.15 mph74%29.83 "Hg6 mi
7:00 PM82 °FPassing clouds.15 mph79%29.80 "Hg6 mi
6:00 PM82 °FPassing clouds.15 mph79%29.80 "Hg6 mi
5:00 PM82 °FPartly sunny.16 mph74%29.77 "Hg6 mi
4:00 PM84 °FPartly sunny.14 mph70%29.77 "Hg6 mi
3:00 PM82 °FOvercast.15 mph79%29.77 "Hg6 mi
2:00 PM82 °FOvercast.9 mph84%29.77 "Hg6 mi
1:00 PM84 °FPartly sunny.12 mph79%29.80 "HgN/A
12:00 PM81 °FOvercast.8 mph89%29.86 "HgN/A
10:00 AM84 °FPartly sunny.2 mph74%29.89 "HgN/A
9:00 AM82 °FPartly sunny.3 mph84%29.89 "HgN/A
8:00 AM82 °FPartly sunny.2 mph84%29.89 "HgN/A
7:00 AM81 °FPartly sunny.No wind89%29.86 "HgN/A
6:00 AM81 °FPartly sunny.2 mph84%29.83 "HgN/A
5:00 AM81 °FPassing clouds.3 mph84%29.80 "HgN/A
4:00 AM81 °FPassing clouds.5 mph84%29.80 "HgN/A
Weather by CustomWeather, © 2014

See weather overviewHow to use our weather pages